Regional Weather Roundup
Issued by NWS Little Rock, AR

Home | Current Version | Previous Version | Text Only | Print | Product List | Glossary Off
Versions: 1 2 3 4 5 6 7 8 9 10 11 12 13 14 15 16 17 18 19 20 21 22 23 24 25 26 27 28 29 30 31

000
ASUS44 KLZK 170805
RWRLZK

WEATHER ROUNDUP FOR ARKANSAS
NATIONAL WEATHER SERVICE LITTLE ROCK AR
200 AM CST FRI NOV 17 2017

NOTE: "FAIR" INDICATES FEW OR NO CLOUDS BELOW 12,000 FEET WITH NO
SIGNIFICANT WEATHER AND/OR OBSTRUCTIONS TO VISIBILITY.

ARZ001-003-010-029-170900-
NORTHWEST ARKANSAS

CITY           SKY/WX    TMP DP  RH WIND       PRES   REMARKS
FAYETTEVILLE   CLOUDY    56  53  90 SE13      30.00F
FORT SMITH     CLOUDY    57  49  74 E8        30.02F
HARRISON       CLOUDY    53  47  79 SE14      30.04F
BENTONVILLE    CLOUDY    56  51  84 SE10      30.01F
ROGERS         CLOUDY    56  51  84 SE10      30.00F
SILOAM SPGS    CLOUDY    56  51  84 SE12      29.99F
$$

ARZ004-005-016-170900-
NORTH CENTRAL ARKANSAS

CITY           SKY/WX    TMP DP  RH WIND       PRES   REMARKS
BATESVILLE     CLOUDY    46  42  86 CALM      30.14F
FLIPPIN        CLOUDY    48  41  76 E6        30.09F
MTN HOME       CLOUDY    47  42  83 SE7       30.08F
$$

ARZ040-041-170900-
WEST CENTRAL ARKANSAS

CITY           SKY/WX    TMP DP  RH WIND       PRES   REMARKS
MENA           CLOUDY    59  59 100 CALM      30.05F
MOUNT IDA      CLOUDY    58  52  80 CALM      30.04F
$$

ARZ009-017-025-026-028-170900-
NORTHEAST ARKANSAS

CITY           SKY/WX    TMP DP  RH WIND       PRES   REMARKS
JONESBORO      PTCLDY    41  38  89 NE6       30.14F
NEWPORT        CLOUDY    44  41  89 NE6       30.14F
WALNUT RIDGE   FOG       38  36  92 NE5       30.14F VSB 1/4
BLYTHEVILLE    CLEAR     40  38  93 E7        30.16S
$$

ARZ022-023-033-042-044-170900-
CENTRAL ARKANSAS

CITY           SKY/WX    TMP DP  RH WIND       PRES   REMARKS
LITTLE ROCK    CLOUDY    54  48  80 E6        30.11S
N LITTLE ROCK    N/A     53  48  82 E5        30.13S
JACKSONVILLE   CLOUDY    53  46  76 E6        30.10F
HOT SPRINGS    CLOUDY    57  53  86 E7        30.09S
RUSSELLVILLE   CLOUDY    55  49  80 SE8       30.08F
CLINTON        CLOUDY    50  46  87 CALM      30.11F
$$

ARZ036-170900-
EAST ARKANSAS

CITY           SKY/WX    TMP DP  RH WIND       PRES   REMARKS
WEST MEMPHIS   CLOUDY    45  45 100 CALM      30.14R
$$

ARZ050-053-066-070-073-170900-
SOUTHWEST ARKANSAS

CITY           SKY/WX    TMP DP  RH WIND       PRES   REMARKS
ARKADELPHIA    CLOUDY    57  53  86 CALM      30.09S
CAMDEN         CLOUDY    57  52  82 CALM      30.07F
TEXARKANA      MOCLDY    58  57  97 SE6       30.05F
EL DORADO      CLOUDY    58  57  97 SE5       30.07F
DE QUEEN       CLOUDY    58  55  90 E6        30.03S
$$

ARZ056-057-069-170900-
SOUTHEAST ARKANSAS

CITY           SKY/WX    TMP DP  RH WIND       PRES   REMARKS
PINE BLUFF     CLOUDY    56  50  80 E5        30.11R
STUTTGART      CLOUDY    52  46  80 E3        30.11F
MONTICELLO     CLOUDY    56  53  90 E6        30.10R

$$






USA.gov is the U.S. government's official web portal to all federal, state and local government web resources and services.